Regional Weather Roundup
Issued by NWS

Home | Current Version | Previous Version | Graphics & Text | Print | Product List | Glossary On
Versions: 1 2 3 4 5 6 7 8 9 10 11 12 13 14 15 16 17 18 19 20 21 22 23 24 25 26 27 28 29 30 31 32 33 34 35 36 37 38 39 40 41 42 43 44 45 46 47 48 49 50
000
ASUS45 KSLC 280510
RWRUT

UTAH REGIONAL WEATHER ROUNDUP
NATIONAL WEATHER SERVICE SALT LAKE CITY UT
1000 PM MST THU NOV 27 2014

UTZ001>011-023>025-280600-

NORTHERN UTAH

CITY           SKY/WX    TMP DP  RH WIND       PRES   REMARKS
BRIGHAM CITY   MOCLDY    39  31  73 CALM      30.13S
HILL AFB       PTCLDY    43  26  50 SE8       30.13S
LOGAN          CLEAR     35  30  82 CALM      30.11F
OGDEN          MOCLDY    44  28  53 E3        30.13R
PROVO AIRPORT  MOCLDY    36  30  80 S3        30.19S
SALT LAKE CITY PTCLDY    47  25  42 SE10      30.12F
VERNAL         MOCLDY    34  25  69 W5        30.23S WCI  30
WENDOVER       MOCLDY    39  27  60 N5        30.13S
HEBER CITY     MOCLDY    30  28  93 CALM      30.21S
WEST JORDAN    CLEAR     50  30  46 S8        30.14F

$$

UTZ012>022-026-027-280600-

SOUTHERN/CENTRAL UTAH

CITY           SKY/WX    TMP DP  RH WIND       PRES   REMARKS
BLANDING       MOCLDY    32  21  63 N3        30.39S
BRYCE CANYON   MOCLDY    22  16  78 W6        30.36F WCI  14
CEDAR CITY     PTCLDY    43  12  28 SE10      30.24F
DELTA          CLOUDY    39  29  66 SE5       30.18F
MILFORD        MOCLDY    46  19  34 SW16      30.20F
MOAB/CYNLANDS  CLEAR     31  18  58 CALM      30.28S
PRICE          PTCLDY    32  22  66 N7        30.29F WCI  26
ST GEORGE      MOCLDY    41  16  36 CALM      30.23S
KANAB          PTCLDY    32  14  47 NE7       30.31F WCI  26

$$

REGIONAL REPORTS     COLORADO/ARIZONA

CITY           SKY/WX    TMP DP  RH WIND       PRES   REMARKS
CRAIG, CO      MOCLDY    30  25  81 CALM      30.26S
GRAND JUNCTION PTCLDY    38  25  59 E7        30.29S WCI  33
RIFLE          MOCLDY    32  26  78 CALM      30.32F
MONTROSE       CLEAR     29  23  78 SE8       30.34S WCI  21
CORTEZ         CLEAR     24  17  74 E5        30.34F WCI  18
PAGE, AZ       MOCLDY    44  18  35 SW3       30.27F
GRAND CANYON   MOCLDY    25   6  44 CALM      30.36S
KINGMAN        PTCLDY    44  16  32 CALM      30.20S
FLAGSTAFF      MOCLDY    33  14  45 CALM      30.37S

$$

REGIONAL REPORTS    NEVADA/IDAHO/WYOMING

CITY           SKY/WX    TMP DP  RH WIND       PRES   REMARKS
LAS VEGAS, NV  MOCLDY    51  21  30 S9        30.13S
ELY            CLOUDY    36  14  40 SE7       30.24F WCI  30
ELKO           CLOUDY    41  30  65 CALM      30.13F
POCATELLO, ID  CLEAR     46  27  47 SW9       30.06S
BURLEY         CLOUDY    54  28  36 SW13      30.03F
EVANSTON, WY   MOCLDY    40  20  44 SW13      30.20F WCI  32
ROCK SPRINGS   PTCLDY    41  20  43 SW16      30.16F

$$



USA.gov is the U.S. government's official web portal to all federal, state and local government web resources and services.